WB2COY Weather Reports


time (UTC)temp
F
wind
direction
speed
knots
gust
knots
rain 1hr
in
rain 24hr
in
rain mn
in
humidity
%
barometer
mb
20260506043016 69 0.0 2.6 0.00 0.00 0.00 42 1008.7
20260506040016 71 0.0 2.6 0.00 0.00 0.00 39 1008.6
20260506033017 73 225 0.9 6.1 0.00 0.00 0.00 35 1008.4
20260506030019 74 225 0.9 4.3 0.00 0.00 0.00 33 1008.4
20260506023016 74 225 0.9 2.6 0.00 0.00 0.00 31 1008.2
20260506020018 75 0.0 4.3 0.00 0.00 0.00 30 1008.1
20260506013017 75 0.0 3.5 0.00 0.00 0.00 28 1007.8
20260506010016 76 0.0 3.5 0.00 0.00 0.00 27 1007.5
20260506003016 77 225 0.9 6.1 0.00 0.00 0.00 26 1007.2
20260506000016 77 225 0.9 7.0 0.00 0.00 0.00 25 1006.9
20260505233038 78 248 1.7 7.8 0.00 0.00 0.00 25 1006.5
20260505230018 79 248 1.7 7.8 0.00 0.00 0.00 23 1006.2
20260505223016 80 248 0.9 7.0 0.00 0.00 0.00 24 1005.7
20260505220038 81 225 1.7 7.8 0.00 0.00 0.00 22 1005.3
20260505213036 82 225 1.7 8.7 0.00 0.00 0.00 23 1005.3
20260505210016 82 225 1.7 9.6 0.00 0.00 0.00 21 1005.0
20260505203116 83 225 2.6 13.0 0.00 0.00 0.00 22 1004.9
20260505200017 83 225 2.6 11.3 0.00 0.00 0.00 21 1005.7
20260505193037 84 225 2.6 10.4 0.00 0.00 0.00 23 1005.9
20260505190016 84 225 2.6 11.3 0.00 0.00 0.00 22 1006.2
20260505183016 84 225 2.6 8.7 0.00 0.00 0.00 22 1006.5
20260505180016 84 225 2.6 10.4 0.00 0.00 0.00 24 1006.9
20260505173016 84 225 1.7 9.6 0.00 0.00 0.00 25 1007.2
20260505170015 82 248 1.7 7.0 0.00 0.00 0.00 28 1007.4
20260505163037 81 203 1.7 8.7 0.00 0.00 0.00 29 1008.0
20260505153015 77 135 0.9 6.1 0.00 0.00 0.00 36 1008.8
20260505123015 65 0.0 1.7 0.00 0.00 0.00 50 1009.7
20260505120035 59 0.0 0.0 0.00 0.00 0.00 60 1009.8
20260505113055 56 0.0 0.9 0.00 0.00 0.00 62 1009.7
20260505100015 52 0.0 0.0 0.00 0.00 0.00 65 1009.5
20260505093015 51 0.0 0.0 0.00 0.00 0.00 64 1009.1
20260505090017 51 0.0 0.0 0.00 0.00 0.00 63 1008.9
20260505083017 53 0.0 0.0 0.00 0.00 0.00 61 1009.0
20260505080017 51 0.0 0.9 0.00 0.00 0.00 64 1009.0
20260505073018 51 0.0 0.0 0.00 0.00 0.00 63 1009.1
20260505070016 51 0.0 0.0 0.00 0.00 0.00 62 1009.2
20260505063017 52 0.0 0.9 0.00 0.00 0.00 60 1009.0
20260505060016 53 0.0 0.0 0.00 0.00 0.00 57 1009.1
20260505053016 55 0.0 0.9 0.00 0.00 0.00 54 1009.3